This is the latest recevied weather packets stored in our database for station/object LU3HGB-WX. If no packets are shown the sender has not sent any weather packets the latest 10 day(s).
| Time | Temp. | Humidity | Pressure | Rain* | Wind** | Luminosity | Snow |
|---|---|---|---|---|---|---|---|
| 1778072260 | 16.11° C | 83% | 1010 hPa | 0 mm | - | 297 W/m² | - |
| 1778071959 | 16.11° C | 84% | 1010 hPa | 0 mm | - | 281 W/m² | - |
| 1778071660 | 16.11° C | 81% | 1010 hPa | 0 mm | - | 264 W/m² | - |
| 1778071359 | 15.56° C | 85% | 1010 hPa | 0 mm | - | 246 W/m² | - |
| 1778071060 | 15° C | 88% | 1010 hPa | 0 mm | - | 228 W/m² | - |
| 1778070762 | 14.44° C | 90% | 1010 hPa | 0 mm | - | 207 W/m² | - |
| 1778070459 | 13.89° C | 91% | 1010 hPa | 0 mm | - | 193 W/m² | - |
| 1778070159 | 13.33° C | 94% | 1010 hPa | 0 mm | - | 177 W/m² | - |
| 1778069860 | 13.33° C | 95% | 1010 hPa | 0 mm | - | 162 W/m² | - |
| 1778069559 | 12.78° C | 95% | 1010 hPa | 0 mm | - | 147 W/m² | - |
| 1778069260 | 11.67° C | 95% | 1010 hPa | 0 mm | - | 134 W/m² | - |
| 1778068960 | 11.11° C | 95% | 1010 hPa | 0 mm | - | 117 W/m² | - |
| 1778068659 | 10.56° C | 95% | 1010 hPa | 0 mm | - | 105 W/m² | - |
| 1778068359 | 10.56° C | 95% | 1010 hPa | 0 mm | - | 92 W/m² | - |
| 1778068060 | 10° C | 95% | 1010 hPa | 0 mm | - | 80 W/m² | - |
| 1778067762 | 9.44° C | 95% | 1010 hPa | 0 mm | - | 67 W/m² | - |
| 1778067460 | 9.44° C | 95% | 1010 hPa | 0 mm | - | 52 W/m² | - |
| 1778067160 | 8.89° C | 95% | 1010 hPa | 0 mm | - | 31 W/m² | - |
| 1778066859 | 8.89° C | 95% | 1010 hPa | 0 mm | - | 28 W/m² | - |
| 1778066560 | 8.33° C | 95% | 1010 hPa | 0 mm | - | 24 W/m² | - |
| 1778066259 | 8.33° C | 95% | 1010 hPa | 0 mm | - | 21 W/m² | - |
| 1778065960 | 8.33° C | 95% | 1010 hPa | 0 mm | - | 17 W/m² | - |
| 1778065660 | 8.33° C | 95% | 1010 hPa | 0 mm | - | 13 W/m² | - |
| 1778065368 | 8.33° C | 95% | 1010 hPa | 0 mm | - | 10 W/m² | - |
| 1778065060 | 8.33° C | 95% | 1010 hPa | 0 mm | - | 6 W/m² | - |
* Rain latest hour (hover to see other rain measurements)
** Current wind speed in m/s (hover to see current wind gust speed)